Home > Time Zones > World Clock > Weather > Italy > Monza > Past weeks

Flag for Italy Weather past 2 weeks in Monza, Italy

Now
41 °F

Fog.


Feels Like: 39 °F
Forecast: 38 / 51 °F
Wind: 3 mph from Southeast

Location: Milan / Linate

Current Time: Dec 20, 2014 at 2:46:55 AM

Latest Report: Dec 20, 2014 at 1:50 AM


Visibility: 0 mi

Pressure: 30.18 "Hg

Humidity: 100%

Dew point: 41 °F

Location of MonzaLocation

Historic Weather in Monza — Graph

°F

Monza temperature yesterday

Maximum temperature yesterday: 52 °F (at 1:50 PM)
Minimum temperature yesterday: 36 °F (at 3:50 AM)
Average temperature yesterday: 42 °F

Past Weeks' High & Low Weather Summary

 TemperatureHumidityPressure
High55 °F (Dec 6, 1:50 PM)100% (Dec 5, 1:20 AM)30.24 "Hg (Dec 5, 1:20 AM)
Low30 °F (Dec 10, 6:50 AM)62% (Dec 9, 12:20 PM)29.83 "Hg (Dec 16, 2:50 PM)
Average44 °F94%30.07 "Hg
* Reported Dec 5 1:20 AM — Dec 20 1:50 AM, Monza, Weather by CustomWeather, © 2014

Note: Actual official high and low records may vary slightly from our data, if they occured in-between our weather recording intervals... More about our weather records

Advertising

Monza weather history for previous 24 hours

 ConditionsComfort  
Time TempWeatherWind HumidityBarometerVisibility
1:50 AM
Dec 20
41 °FFog.3 mph100%30.18 "Hg0 mi
1:20 AM41 °FFog.2 mph100%30.18 "Hg0 mi
12:50 AM41 °FSnow. Overcast.3 mph100%30.18 "Hg1 mi
12:20 AM41 °FFog.2 mph100%30.18 "Hg0 mi
11:50 PM
Dec 19
41 °FFog.2 mph100%30.18 "Hg0 mi
11:20 PM41 °FFog.5 mph100%30.18 "Hg0 mi
10:50 PM41 °FFog.5 mph100%30.18 "Hg0 mi
10:20 PM41 °FFog.5 mph100%30.18 "Hg0 mi
9:50 PM41 °FFog.5 mph100%30.18 "Hg0 mi
9:20 PM43 °FFog.3 mph100%30.18 "Hg0 mi
8:50 PM43 °FFog.3 mph100%30.18 "Hg1 mi
8:20 PM45 °FFog.5 mph100%30.18 "Hg1 mi
7:50 PM45 °FFog.3 mph100%30.18 "Hg2 mi
7:20 PM46 °FFog.2 mph93%30.18 "Hg3 mi
6:50 PM46 °FFog.3 mph93%30.15 "Hg3 mi
6:20 PM46 °FClear.2 mph93%30.15 "Hg4 mi
5:50 PM46 °FClear.5 mph93%30.15 "Hg5 mi
5:20 PM46 °FClear.2 mph93%30.15 "Hg4 mi
4:50 PM46 °FClear.3 mph87%30.15 "Hg4 mi
4:20 PM48 °FClear.5 mph87%30.15 "Hg4 mi
3:50 PM52 °FClear.1 mph77%30.15 "Hg5 mi
3:20 PM52 °FClear.3 mph82%30.15 "Hg6 mi
2:50 PM52 °FClear.1 mph77%30.15 "Hg6 mi
2:20 PM52 °FClear.3 mph77%30.15 "Hg6 mi
1:50 PM52 °FClear.3 mph77%30.18 "Hg5 mi
1:20 PM50 °FClear.2 mph82%30.18 "Hg5 mi
12:50 PM50 °FClear.2 mph88%30.21 "Hg4 mi
12:20 PM48 °FClear.3 mph94%30.21 "Hg4 mi
11:50 AM46 °FClear.3 mph100%30.21 "Hg4 mi
11:20 AM45 °FFog.1 mph100%30.24 "Hg3 mi
10:50 AM45 °FFog.1 mph100%30.24 "Hg2 mi
10:20 AM41 °FFog.1 mph100%30.24 "Hg1 mi
9:50 AM39 °FFog.1 mph100%30.24 "Hg1 mi
9:20 AM37 °FFog.1 mph100%30.24 "Hg1 mi
8:50 AM37 °FFog.1 mph87%30.21 "Hg1 mi
8:20 AM37 °FFog.No wind100%30.21 "Hg0 mi
7:50 AM36 °FFog.No wind93%30.21 "Hg0 mi
7:20 AM36 °FFog.1 mph93%30.21 "Hg0 mi
6:50 AM36 °FFog.No wind93%30.21 "Hg0 mi
6:20 AM36 °FFog.No wind93%30.18 "Hg0 mi
5:50 AM36 °FFog.No wind93%30.21 "Hg0 mi
5:20 AM36 °FFog.2 mph100%30.18 "Hg0 mi
4:50 AM37 °FFog.No wind100%30.18 "Hg0 mi
4:20 AM36 °FFog.2 mph100%30.21 "Hg0 mi
3:50 AM36 °FFog.2 mph100%30.21 "Hg0 mi
3:20 AM37 °FFog.2 mph100%30.21 "Hg0 mi
2:50 AM37 °FFog.1 mph100%30.21 "Hg0 mi
2:20 AM37 °FFog.2 mph100%30.21 "Hg0 mi
Weather by CustomWeather, © 2014

See weather overviewHow to use our weather pages